Regional Weather Roundup
Issued by NWS

Home | Current Version | Previous Version | Graphics & Text | Print | Product List | Glossary On
Versions: 1 2 3 4 5 6 7 8 9 10 11 12 13 14 15 16 17 18 19 20 21 22 23 24 25 26 27 28 29 30 31 32 33 34 35 36 37 38 39 40 41 42 43 44 45 46 47 48 49 50
000
ASUS43 KDTX 241410
RWRMI
MICHIGAN HOURLY REGIONAL WEATHER ROUNDUP
NATIONAL WEATHER SERVICE DETROIT/PONTIAC MI
900 AM EST TUE JAN 24 2017

NOTE: "FAIR" INDICATES FEW OR NO CLOUDS BELOW 12,000 FEET WITH NO
SIGNIFICANT WEATHER AND/OR OBSTRUCTION TO VISIBILITY.

MIZ047>049-052>055-059>063-066>070-074>076-081>083-241500-
SOUTHEAST LOWER MICHIGAN

CITY           SKY/WX    TMP DP  RH WIND       PRES   REMARKS
ADRIAN         CLOUDY    38  38 100 NW8       29.78R WCI  32
ALMA           CLOUDY    37  37  99 W7        29.79R WCI  31
ANN ARBOR      CLOUDY    38  37  97 W7        29.76R WCI  33
BAD AXE        LGT SNOW  34  34 100 CALM      29.75R
CARO           LGT RAIN  37  36  96 CALM      29.74F VSB 3/4
DETROIT CITY   CLOUDY    38  38 100 SW3       29.75S FOG
DETROIT        CLOUDY    40  38  93 NW8       29.76R WCI  34
FLINT          FOG       36  35  96 NW8       29.77R VSB 1   WCI  30
GROSSE ILE     CLOUDY    37  36  99 SW5       29.75R FOG     WCI  33
HILLSDALE      CLOUDY    36  36 100 NW9       29.76R FOG     WCI  29
HOWELL         CLOUDY    37  36  97 NW6       29.76R WCI  32

CITY           SKY/WX    TMP DP  RH WIND       PRES   REMARKS
JACKSON        LGT RAIN  39  37  92 NW9       29.77R WCI  33
LAMBERTVILLE   CLOUDY    41  38  91 NW3       29.77R
LANSING        CLOUDY    38  35  89 NW10      29.78R WCI  31
LAPEER         RAIN      35  35 100 CALM      29.75S
MASON          CLOUDY    38  38 100 NW7       29.77R WCI  32
MONROE         CLOUDY    39  39  99 NW8       29.76R WCI  34
MT. CLEMENS    LGT RAIN  38  38 100 W5        29.73R FOG     WCI  34
PONTIAC        LGT RAIN  35  34  96 NW8       29.73R FOG     WCI  29
PORT HOPE        N/A     35  34  96 W3        29.73S
PORT HURON     FOG       36  36 100 CALM      29.74S VSB 1/4
TRI CITIES     CLOUDY    36  36 100 NW7       29.78R WCI  30
MIDLAND        CLOUDY    37  37  98 CALM      29.77R
TROY           CLOUDY    39  38  94 W6        29.76S
SAGINAW HB     DRIZZLE   36  34  93 W6        29.76S WCI  31
$$
MIZ043>046-050>051-056>058-064>065-071>073-077>080-241500-
SOUTHWEST LOWER MICHIGAN

CITY           SKY/WX    TMP DP  RH WIND       PRES   REMARKS
BATTLE CREEK   CLOUDY    38  36  92 NW12      29.80S WCI  30
BENTON HARBOR  CLOUDY    39  35  86 W9        29.85R FOG     WCI  33
BIG RAPIDS     CLOUDY    35  33  95 NW5       29.78S FOG     WCI  31
COLDWATER      CLOUDY    38  38 100 NW7       29.79S WCI  33
FREMONT        CLOUDY    35  34  95 NW6       29.81R WCI  30
HOLLAND        CLOUDY    38  34  85 NW5       29.83R WCI  34
GRAND RAPIDS   CLOUDY    38  34  85 NW9       29.80S WCI  31
IONIA          CLOUDY    37  36  99 W7        29.79S FOG     WCI  31
KALAMAZOO      CLOUDY    38  34  85 NW7       29.81S WCI  33
LUDINGTON      CLOUDY    36  36  99 CALM      29.81S
MARSHALL       CLOUDY    38  37  99 W7        29.79R FOG     WCI  32
MOUNT PLEASANT CLOUDY    36  36  99 NW5       29.77R WCI  32
MUSKEGON       CLOUDY    38  35  89 NW5       29.82F WCI  34
SOUTH HAVEN    CLOUDY    38  35  89 NW6       29.83S WCI  34
$$
MIZ016>042-241500-
NORTHERN LOWER MICHIGAN

CITY           SKY/WX    TMP DP  RH WIND       PRES   REMARKS
ALPENA         LGT RAIN  35  34  96 N3        29.77S FOG
BEAVER ISLAND  FOG       34  34 100 CALM      29.79R VSB 1/4
BELLAIRE       CLOUDY    35  35 100 CALM      29.79R
CADILLAC       CLOUDY    34  33  96 NW7       29.76R FOG     WCI  28
CHARLEVOIX     FOG       35  35 100 NW3       29.81R VSB 3/4
FRANKFORT      CLOUDY    37  36  96 CALM      29.81R
GAYLORD        CLOUDY    35  32  88 W5        29.74R FOG     WCI  31
GRAYLING       FOG       35  35  99 W6        29.75F VSB<1/4 WCI  30
HARBOR SPRINGS CLOUDY    35  35  99 CALM      29.77S FOG
HOUGHTON LAKE  FOG       35  34  96 NW8       29.76R VSB 1/4 WCI  29
MANISTEE       CLOUDY    36  36 100 NW8       29.80S WCI  30
OSCODA         MIX PCPN  36  35  98 NW3       29.75S
PELLSTON       FOG       34  32  92 CALM      29.78R VSB 1
ROGERS CITY    SNOW      35  34  96 CALM      29.78S VSB 1/4
TRAVERSE CITY  CLOUDY    36  35  96 W6        29.78F FOG     WCI  31
$$
MIZ007>008-015-241500-
EASTERN UPPER MICHIGAN

CITY           SKY/WX    TMP DP  RH WIND       PRES   REMARKS
KINROSS        LGT SNOW N/A N/A N/A E5        29.79R
MACKINAC ISLAN CLOUDY    32  32 100 E6        29.78R FOG     WCI  26
NEWBERRY       FOG       32  31  97 N3        29.78R VSB 1/4
S. S. MARIE    LGT SNOW  34  33  96 CALM      29.79R FOG
MUNISING         N/A     34  34 100 CALM      29.80S
$$
MIZ004>006-011>014-085-241500-
CENTRAL UPPER MICHIGAN

CITY           SKY/WX    TMP DP  RH WIND       PRES   REMARKS
MANISTIQUE     FOG       32  32  99 NW3       29.79S VSB 1/4
ESCANABA       CLOUDY   N/A N/A N/A W3        29.82R
$$
MIZ001>003-009>011-084-241500-
WESTERN UPPER MICHIGAN

CITY           SKY/WX    TMP DP  RH WIND       PRES   REMARKS
IRON MOUNTAIN  CLOUDY    34  31  88 NW5       29.80R WCI  30
HOUGHTON       CLOUDY    34  32  92 W6        29.81R FOG     WCI  29
COPPER HARBOR    N/A     35  34  96 NW5       29.82R WCI  31
IRONWOOD       CLOUDY    32  32 100 W5        29.85R WCI  27
$$

ABBREVIATIONS USED IN REMARKS
   TC - TEMPERATURE IN CELSIUS
  WCI - WIND CHILL INDEX
   HX - HEAT INDEX
  VSB - VISIBILITY




USA.gov is the U.S. government's official web portal to all federal, state and local government web resources and services.